Other Public Products
Issued by NWS Grand Forks, ND

Home | Current Version | Previous Version | Graphics & Text | Print | Product List | Glossary On
Versions: 1 2 3 4 5 6 7 8 9 10 11 12 13 14 15 16 17 18 19 20 21 22 23 24 25 26 27 28 29 30 31 32 33 34 35 36 37 38 39 40 41 42 43 44 45 46 47 48 49 50
000
FPUS83 KFGF 180531
OPUFGF
PRAIRIE TO PINES WEATHER ROUNDUP
NATIONAL WEATHER SERVICE EASTERN NORTH DAKOTA/GRAND FORKS ND
1200 AM CDT SAT APR 18 2015

 **SATELLITE DATA USED TO AUGMENT SKY COVER AT AUTOMATED STATIONS**
 *****  WEATHER ACROSS EASTERN NORTH DAKOTA  *****

CITY           SKY/WX    TMP DP  RH WIND       PRES   REMARKS
GRAND FORKS    CLEAR     36  27  69 N7        30.15R
GRAND FORKS AF CLEAR     38  27  62 NE5       30.15R
GRAND CITY NWS   N/A     43 N/A N/A NE6         N/A
BUXTON           N/A     46  28  50 CALM        N/A
DEVILS LAKE    CLEAR     43  25  49 NE10      30.14S
FARGO          PTCLDY    52  17  25 N8        30.10R
WAHPETON ARPT  PTCLDY    54  21  28 N9        30.07R
$$

 *****  WEATHER ACROSS CENTRAL AND WESTERN NORTH DAKOTA  *****

CITY           SKY/WX    TMP DP  RH WIND       PRES   REMARKS
JAMESTOWN      CLEAR     46  22  38 NE10      30.11S
BISMARCK       PTCLDY    44  29  55 NE7       30.11R
MINOT          CLEAR     42  24  49 NE7       30.11S
MINOT AFB      CLEAR     47  28  46 E12       30.11R
GARRISON         N/A     49  28  44 E5        30.10S
WILLISTON      CLEAR     53  29  39 SE9       30.07R
DICKINSON      PTCLDY    41  20  43 S7        30.06F
HETTINGER      PTCLDY    40  24  53 CALM      30.09F
$$

 *****  OTHER OBSERVATIONS NORTHEAST NORTH DAKOTA  *****

CITY           SKY/WX    TMP DP  RH WIND       PRES   REMARKS
WALHALLA       FAIR      36  28  75 SW5       30.18S
LANGDON        FAIR      39  28  65 E12       30.16S
CAVALIER       FAIR      43  32  65 N7        30.17S
GRAFTON        FAIR      41  28  60 N7        30.17R
CANDO          FAIR      39  25  56 E7        30.16S
FORT TOTTEN      N/A     47  24  40 NE7       29.95S
ROLLA          FAIR      39  27  60 CALM      30.17S
RUGBY          FAIR      41  28  60 E12       30.14S
 ***** THE ABOVE OBSERVATIONS ARE NON NWS ARE NOT QUALITY
        CONTROLLED AND MAY MIS-REPORT RAIN FOR SNOW...
$$

 *****  OTHER OBSERVATIONS SOUTHEAST NORTH DAKOTA *****

CITY           SKY/WX    TMP DP  RH WIND       PRES   REMARKS
COOPERSTOWN    NOT AVBL
VALLEY CITY    FAIR      46  25  42 NE8       30.12S
OAKES            N/A     48  25  40 NE12      30.09S
GWINNER        CLEAR     48  21  34 N12       30.10S
SHEYENNE NWR     N/A     53  16  23 NE7       29.95S
BUFFALO        NOT AVBL
WYNDMERE         N/A     52  23  32 N6          N/A
 ***** THE ABOVE OBSERVATIONS ARE NON NWS ARE NOT QUALITY
       CONTROLLED AND MAY MIS-REPORT RAIN FOR SNOW...
$$

  *****  WEATHER ACROSS NORTHERN MINNESOTA  *****

CITY           SKY/WX    TMP DP  RH WIND       PRES   REMARKS
FLAG ISLAND    CLEAR     43  28  56 E3        30.19R
WARROAD        CLEAR     39  32  75 NE6       30.20R
ROSEAU         CLEAR     39  30  70 E8        30.19R
HALLOCK        CLEAR     39  28  65 NE8       30.17S
THF RVR FALLS  CLEAR     46  30  53 NE10      30.16R
HALSTAD          N/A     44  19  36 NE12        N/A
FOSSTON        CLEAR     45  21  39 NE9       30.13S
BAUDETTE       CLEAR     42  29  59 NE7       30.18R
WASKISH        CLEAR     43  30  61 CALM      30.16R
CROOKSTON      FAIR      45  28  53 NE6       30.15R
$$
  *****  WEATHER ACROSS CENTRAL AND WEST MINNESOTA  *****

CITY           SKY/WX    TMP DP  RH WIND       PRES   REMARKS
BEMIDJI        CLEAR     46  28  48 NE9       30.13R
PARK RAPIDS    CLEAR     54  19  25 N8        30.10R
WADENA         CLEAR     54  27  35 NE9       30.08R
DETROIT LAKES  CLEAR     52  25  35 NE6       30.11S
MOORHEAD       PTCLDY    45  18  33 N9        30.11S
FERGUS FALLS   CLEAR     55  21  26 NE7       30.08R
ELBOW LAKE     FAIR      55  31  40 NE10      30.06S
MORRIS MN      PTCLDY    52  21  30 CALM      30.05S
STAPLES        CLEAR     54  25  32 N8        30.08R
WHEATON        PTCLDY    45  27  49 NW5       30.08S
$$
  *****  WEATHER ELSEWHERE ACROSS MINNESOTA  *****

CITY           SKY/WX    TMP DP  RH WIND       PRES   REMARKS
DULUTH         CLEAR     55  27  34 N13       30.07R
INTRNTL FALLS  CLEAR     43  30  60 NE8       30.16R
ELY            CLEAR     45  28  53 N5        30.14R
CLOQUET        CLEAR     52  18  25 N6        30.07R
BRAINERD       CLEAR     56  28  34 NE9       30.08R
HIBBING        CLEAR     50  25  37 NE7       30.10R
ALEXANDRIA     CLEAR     47  31  53 N7        30.08R
SAINT CLOUD    CLEAR     48  28  46 CALM      30.04S
MINNEAPOLIS    PTCLDY    57  35  43 NW6       30.04S
$$

  *****  WEATHER ACROSS SOUTH DAKOTA  *****

CITY           SKY/WX    TMP DP  RH WIND       PRES   REMARKS
SIOUX FALLS    CLOUDY    55  35  47 NE5       30.05S
BROOKINGS      PTCLDY    46  27  46 CALM      30.07S
WATERTOWN      PTCLDY    46  24  42 CALM      30.07S
HURON          PTCLDY    49  26  41 NE6       30.04F
SISSETON         N/A     44  24  45 N8        30.06R
ABERDEEN       PTCLDY    47  18  31 CALM      30.06S
MITCHELL       CLOUDY    58  34  40 E6        30.05S
PIERRE         CLOUDY    57  46  66 W10       30.06S
MOBRIDGE       CLOUDY    47  27  45 CALM      30.04F
RAPID CITY     LGT RAIN  47  45  93 W3        30.11F
$$

  *****  SOME WEATHER IN NEARBY STATES *****

CITY           SKY/WX    TMP DP  RH WIND       PRES   REMARKS
GLASGOW MT     CLEAR     49  27  42 SE14      29.99S
GREAT FALLS MT FAIR      44  30  57 W8        29.96S
CHEYENNE WY    CLOUDY    33  32  96 N8        30.05F
SCOTTSBLUFF NE RAIN      43  43 100 NW6       30.06S FOG
OMAHA NE       CLOUDY    63  55  75 N3        29.99S
DES MOINES IA  CLOUDY    66  52  60 CALM      30.01R
DAVENPORT IA   CLEAR     57  46  66 CALM      30.02R
CHICAGO IL     PTCLDY    61  47  59 S3        30.00S
EAU CLAIRE WI  CLEAR     50  33  52 E3        30.02S
LA CROSSE WI   PTCLDY    59  50  72 CALM      30.01S
$$

  *****  SOME NATIONAL WEATHER *****

CITY           SKY/WX    TMP DP  RH WIND       PRES   REMARKS
LA GUARDIA NY  PTCLDY    62  45  53 N9        29.97S
RALEIGH NC     CLOUDY    66  62  87 CALM      30.01S
ATLANTA GA     LGT RAIN  63  60  90 E9        30.02S FOG
NEW ORLEANS LA CLOUDY    75  70  84 CALM      29.93F
OKLAHOMA CITY  CLOUDY    64  59  83 CALM      29.94F
ALBUQUERQUE NM CLOUDY    46  25  43 N12       30.06S
SALT LAKE CITY MOCLDY    54  37  52 SE10      30.04R
LOS ANGELES CA FAIR      65  43  44 SW9       30.01R
BOISE ID       FAIR      58  33  39 NW5       30.03R
SEATTLE WA     FAIR      56  44  64 N8        30.29R
$$

*** WEATHER ACROSS MANITOBA...SASKATCHEWAN AND ONTARIO ***
                ***ONTARIO***

CITY           SKY/WX    TMP DP  RH WIND       PRES   REMARKS
GERALDTON      CLOUDY    37  36  93 NW10G17   30.06R
THUNDER BAY    CLEAR     45  32  61 N9G18     30.11R
SIOUX LOOKOUT  CLEAR     27  25  93 N2        30.16R
TORONTO        CLEAR     54  39  58 W6        29.99S
BIG TROUT LK   LGT RAIN  34  30  86 N5        30.14R
PICKLE LAKE    NOT AVBL
DRYDEN         CLEAR     37  30  75 NW3       30.17R
KENORA         CLEAR     39  28  65 E6        30.19R
$$
                *** MANITOBA***

CITY           SKY/WX    TMP DP  RH WIND       PRES   REMARKS
BRANDON        CLEAR     36  30  80 E3        30.18R
DAUPHIN        CLEAR     39  32  75 SE9       30.16S
ISLAND LAKE    PTCLDY    32  30  93 CALM      30.17R
PILOT MOUND      N/A     36  27  69 E7          N/A
THE PAS        CLOUDY    41  32  70 S8        30.10S
THOMPSON       PTCLDY    32  23  69 VRB2      30.14R
WINNIPEG       CLEAR     36  28  75 E6        30.20S
LYNN LAKE      CLOUDY    39  23  52 SE7       30.05F
CHURCHILL      CLEAR     18  14  86 NW9       30.21R WCI   6
GILLAM         CLEAR     28  27  93 NE7       30.18R WCI  21
$$
                ***SASKATCHEWAN***

CITY           SKY/WX    TMP DP  RH WIND       PRES   REMARKS
ESTEVAN        PTCLDY    43  28  56 E9        30.09
KINDERSLEY     LGT RAIN  54  36  50 N12       29.84R
LLOYDMINSTER   MOCLDY    43  39  87 NE15G21   29.87F
PRINCE ALBERT  CLOUDY    48  28  46 SE12      29.95F
REGINA         PTCLDY    46  28  49 SE17      30.04F


USA.gov is the U.S. government's official web portal to all federal, state and local government web resources and services.